Content
SEND FEEDBACK

Daily
Averages
Monthly
Summary
United States of America

MANATI, PUERTO RICO


Home > North America > United States > Puerto Rico
Elevation: 8 meters     Latitude: 18 26N     Longitude: 066 27W

WEATHER
 
SELECT A DAY
Number of Records: 164,301;   Date Range: 7/1/96 - 7/22/14
 
SHARE

PRINT THIS DATA

[ ← Previous Day ]
WEATHER ALMANAC - 13 FEBRUARY, 2013
[ Next Day → ]
[ °F ]   °C
Weather ElementAverageHighLow
Temperature24.7 °C28.3 °C (12:56 pm)21.7 °C (3:56 am)
Dewpoint18.1 °C19.4 °C (11:56 pm)16.7 °C (10:56 am)
Humidity67.4 %81 % (3:56 am)51 % (12:56 pm)
Barometer1017.6 hPa1019.6 hPa (10:56 am)1016.3 hPa (2:56 pm)
Wind Speed11.6 km/h27.8 km/h (12:56 pm)
Wind Gust35.2 km/h (11:56 am)
Weather ElementAverage
Visibility16.1 km
Wind DirectionENE (54.8 °)

Weather ElementTotal
Precipitation---
Cooling Degree Days6.7 (Base 18.3)
Growing Degree Days15 (Base 10)
Averaged from 23 records on 13 February, 2013
WEATHER CONDITIONS BREAKOUT
WIND DIRECTION BREAKOUT
WEATHER BY HOUR - 13 FEBRUARY, 2013
[ °F ]   °C
Local TimeTemperatureDewpointHumidityBarometerVisibilityWind DirectionWind SpeedGust SpeedPrecipitationEventsConditions
1:56 AM22.8 °C17.8 °C73 %1017.9 hPa16.1 kmCalmScattered Clouds
2:56 AM22.2 °C18.3 °C78 %1017.6 hPa16.1 kmCalmPartly Cloudy
3:56 AM21.7 °C18.3 °C81 %1017.3 hPa16.1 kmCalmPartly Cloudy
4:56 AM21.7 °C18.3 °C81 %1016.9 hPa16.1 kmCalmScattered Clouds
5:56 AM21.7 °C17.8 °C78 %1017.3 hPa16.1 kmCalmScattered Clouds
6:56 AM21.7 °C17.8 °C78 %1017.6 hPa16.1 kmCalmScattered Clouds
7:56 AM22.8 °C17.2 °C71 %1018.3 hPa16.1 kmCalmPartly Cloudy
8:56 AM25 °C17.8 °C64 %1019 hPa16.1 kmEast (100°)7.4 km/hPartly Cloudy
9:56 AM26.1 °C17.2 °C58 %1019.3 hPa16.1 kmEast (80°)13 km/hPartly Cloudy
10:56 AM27.2 °C16.7 °C52 %1019.6 hPa16.1 kmENE (70°)22.2 km/h29.6 km/hPartly Cloudy
11:56 AM27.8 °C17.2 °C52 %1018.6 hPa16.1 kmENE (60°)24.1 km/h35.2 km/hPartly Cloudy
12:56 PM28.3 °C17.2 °C51 %1017.9 hPa16.1 kmENE (70°)27.8 km/hPartly Cloudy
1:56 PM27.8 °C18.3 °C56 %1017.3 hPa16.1 kmENE (60°)20.4 km/h31.5 km/hPartly Cloudy
2:56 PM27.8 °C18.3 °C56 %1016.3 hPa16.1 kmENE (70°)25.9 km/h33.3 km/hPartly Cloudy
3:56 PM27.2 °C18.9 °C60 %1016.3 hPa16.1 kmEast (80°)24.1 km/h35.2 km/hPartly Cloudy
4:56 PM26.7 °C18.9 °C62 %1016.3 hPa16.1 kmEast (80°)25.9 km/hPartly Cloudy
5:56 PM25.6 °C18.9 °C66 %1016.3 hPa16.1 kmEast (80°)20.4 km/hPartly Cloudy
6:56 PM24.4 °C18.9 °C71 %1016.9 hPa16.1 kmEast (80°)22.2 km/hPartly Cloudy
7:56 PM23.9 °C18.9 °C73 %1017.6 hPa16.1 kmEast (80°)14.8 km/hPartly Cloudy
8:56 PM23.9 °C18.3 °C71 %1017.9 hPa16.1 kmESE (120°)5.6 km/hClear
9:56 PM23.9 °C18.3 °C71 %1018.6 hPa16.1 kmESE (110°)7.4 km/hPartly Cloudy
10:56 PM23.9 °C18.3 °C71 %1018.6 hPa16.1 kmCalmScattered Clouds
11:56 PM23.9 °C19.4 °C76 %1018.6 hPa16.1 kmESE (120°)5.6 km/h0 mmMostly Cloudy
Hourly data recorded from TJIG, located 0 kilometers away from Manati, Puerto Rico







STORIES FROM OUR PARTNERS